LZ3VG-1 Weather Reports


time (UTC)temp
C
wind
direction
speed
KPH
gust
KPH
rain 1hr
cm
rain 24hr
cm
rain mn
cm
humidity
%
barometer
mb
20260504223126 10 142 3.2 3.2 0.00 0.00 0.00 82 1011.9
20260504222708 11 130 0.0 1.6 0.00 0.00 0.00 80 1012.1
20260504222704 11 145 1.6 3.2 0.00 0.00 0.00 81 1011.9
20260504221347 11 154 0.0 3.2 0.00 0.00 0.00 81 1012.0
20260504220850 11 149 0.0 3.2 0.00 0.00 0.00 81 1012.2
20260504220349 11 129 0.0 3.2 0.00 0.00 0.00 81 1012.0
20260504220129 11 132 1.6 1.6 0.00 0.00 0.00 80 1012.2
20260504215632 11 132 1.6 1.6 0.00 0.00 0.00 80 1012.3
20260504215127 11 48 0.0 3.2 0.00 0.00 0.00 79 1012.1
20260504214349 11 130 0.0 3.2 0.00 0.00 0.00 80 1012.5
20260504213847 12 139 3.2 3.2 0.00 0.00 0.00 78 1012.1
20260504213349 12 142 3.2 4.8 0.00 0.00 0.00 77 1012.2
20260504212848 12 137 3.2 4.8 0.00 0.00 0.00 76 1012.3
20260504212349 12 153 1.6 3.2 0.00 0.00 0.00 75 1012.3
20260504211849 12 142 1.6 3.2 0.00 0.00 0.00 74 1012.5
20260504211626 12 205 0.0 1.6 0.00 0.00 0.00 74 1012.6
20260504210848 12 133 0.0 1.6 0.00 0.00 0.00 74 1012.3
20260504210349 12 141 0.0 1.6 0.00 0.00 0.00 74 1012.6
20260504205914 12 166 0.0 3.2 0.00 0.00 0.00 76 1012.5
20260504205906 12 139 1.6 3.2 0.00 0.00 0.00 75 1012.3
20260504204848 12 111 3.2 3.2 0.00 0.00 0.00 76 1012.4
20260504204631 12 144 1.6 3.2 0.00 0.00 0.00 74 1012.8
20260504203918 13 142 3.2 3.2 0.00 0.00 0.00 73 1012.8
20260504203906 13 146 3.2 3.2 0.00 0.00 0.00 74 1012.6
20260504202849 13 157 1.6 3.2 0.00 0.00 0.00 72 1012.5
20260504202348 13 133 1.6 3.2 0.00 0.00 0.00 71 1012.8
20260504201849 13 148 1.6 3.2 0.00 0.00 0.00 70 1012.4
20260504201348 13 165 0.0 3.2 0.00 0.00 0.00 71 1012.6
20260504200849 14 140 1.6 3.2 0.00 0.00 0.00 70 1012.6
20260504200349 14 126 1.6 3.2 0.00 0.00 0.00 68 1012.7
20260504200130 14 149 1.6 3.2 0.00 0.00 0.00 67 1012.5
20260504195348 14 133 0.0 3.2 0.00 0.00 0.00 66 1012.5
20260504195127 15 144 3.2 3.2 0.00 0.00 0.00 66 1012.7
20260504194347 15 227 0.0 3.2 0.00 0.00 0.00 66 1012.6
20260504193848 15 186 0.0 3.2 0.00 0.00 0.00 66 1012.7
20260504193348 15 168 1.6 3.2 0.00 0.00 0.00 66 1012.7
20260504192849 16 165 1.6 3.2 0.00 0.00 0.00 64 1012.4
20260504192349 16 202 0.0 3.2 0.00 0.00 0.00 63 1012.4
20260504192128 16 135 0.0 3.2 0.00 0.00 0.00 62 1012.4
20260504191348 16 135 0.0 3.2 0.00 0.00 0.00 59 1012.5
20260504190849 17 152 1.6 3.2 0.00 0.00 0.00 57 1012.5
20260504190349 17 176 1.6 3.2 0.00 0.00 0.00 56 1012.6
20260504190124 17 174 0.0 3.2 0.00 0.00 0.00 54 1012.5
20260504185624 18 147 0.0 3.2 0.00 0.00 0.00 53 1012.2
20260504185124 18 134 0.0 3.2 0.00 0.00 0.00 52 1012.3
20260504184343 19 141 1.6 3.2 0.00 0.00 0.00 50 1012.3
20260504183918 20 138 3.2 4.8 0.00 0.00 0.00 46 1012.2
20260504183906 19 128 1.6 4.8 0.00 0.00 0.00 49 1012.2
20260504183114 21 144 3.2 6.4 0.00 0.00 0.00 43 1012.2
20260504182336 21 138 4.8 8.0 0.00 0.00 0.00 41 1012.4
20260504181836 21 141 4.8 8.0 0.00 0.00 0.00 41 1011.9
20260504181337 21 136 6.4 9.7 0.00 0.00 0.00 40 1012.2
20260504180836 22 137 4.8 9.7 0.00 0.00 0.00 40 1012.1
20260504180337 22 145 4.8 9.7 0.00 0.00 0.00 38 1012.0
20260504175835 22 135 6.4 12.9 0.00 0.00 0.00 37 1012.1
20260504175337 22 145 3.2 12.9 0.00 0.00 0.00 37 1012.3
20260504175115 22 119 3.2 11.3 0.00 0.00 0.00 37 1012.3
20260504174337 22 138 6.4 11.3 0.00 0.00 0.00 37 1012.2
20260504174142 23 143 3.2 14.5 0.00 0.00 0.00 37 1012.0
20260504173854 22 152 8.0 11.3 0.00 0.00 0.00 36 1011.9
20260504172837 23 155 8.0 14.5 0.00 0.00 0.00 36 1012.1
20260504172337 23 134 8.0 12.9 0.00 0.00 0.00 36 1012.1
20260504171906 23 142 4.8 11.3 0.00 0.00 0.00 36 1012.2
20260504171856 23 151 6.4 12.9 0.00 0.00 0.00 36 1012.0
20260504171116 23 129 6.4 11.3 0.00 0.00 0.00 36 1012.1
20260504170337 23 130 4.8 11.3 0.00 0.00 0.00 36 1012.3
20260504160337 25 132 16.1 22.5 0.00 0.00 0.00 35 1012.1
20260504150837 25 114 22.5 27.4 0.00 0.00 0.00 35 1012.2
20260504150336 25 102 3.2 27.4 0.00 0.00 0.00 36 1012.1
20260504140836 25 164 3.2 16.1 0.00 0.00 0.00 35 1012.9
20260504140336 25 136 9.7 16.1 0.00 0.00 0.00 35 1012.8
20260504140112 26 151 3.2 9.7 0.00 0.00 0.00 35 1013.0
20260504130606 25 130 9.7 17.7 0.00 0.00 0.00 38 1013.4
20260504110103 23 128 8.0 12.9 0.00 0.00 0.00 43 1014.9
20260504100323 23 156 3.2 9.7 0.00 0.00 0.00 43 1015.5
20260504081823 19 132 4.8 30.6 0.00 0.00 0.00 47 1015.5
20260504081324 19 116 20.9 30.6 0.00 0.00 0.00 47 1015.3
20260504080821 20 111 14.5 33.8 0.00 0.00 0.00 46 1015.5
20260504080604 19 156 6.4 33.8 0.00 0.00 0.00 48 1015.4
20260504070322 17 139 4.8 25.7 0.00 0.00 0.00 49 1015.4
20260504050321 15 154 1.6 9.7 0.00 0.00 0.00 54 1015.5
20260504045824 15 115 3.2 9.7 0.00 0.00 0.00 53 1015.3
20260504045322 14 124 3.2 9.7 0.00 0.00 0.00 55 1015.6
20260504045103 13 204 3.2 9.7 0.00 0.00 0.00 58 1015.1
20260504044607 12 149 4.8 12.9 0.00 0.00 0.00 60 1015.3
20260504043823 12 189 8.0 20.9 0.00 0.00 0.00 62 1015.2
20260504043321 12 148 12.9 20.9 0.00 0.00 0.00 62 1015.0
20260504042823 12 149 11.3 17.7 0.00 0.00 0.00 63 1014.9
20260504042322 11 135 14.5 16.1 0.00 0.00 0.00 63 1015.0
20260504041824 11 125 8.0 14.5 0.00 0.00 0.00 66 1015.0
20260504041323 10 174 6.4 16.1 0.00 0.00 0.00 69 1015.0
20260504041100 10 151 6.4 16.1 0.00 0.00 0.00 70 1015.2
20260504040322 8 113 9.7 9.7 0.00 0.00 0.00 75 1015.2
20260504035823 8 169 3.2 8.0 0.00 0.00 0.00 76 1015.3
20260504035602 8 176 1.6 8.0 0.00 0.00 0.00 78 1015.6
20260504034823 7 152 3.2 9.7 0.00 0.00 0.00 78 1015.4
20260504034322 7 142 3.2 9.7 0.00 0.00 0.00 77 1015.5
20260504034105 8 123 8.0 9.7 0.00 0.00 0.00 77 1015.7
20260504033322 8 162 6.4 8.0 0.00 0.00 0.00 77 1015.4
20260504032824 8 126 0.0 4.8 0.00 0.00 0.00 75 1015.4
20260504032602 8 131 3.2 8.0 0.00 0.00 0.00 76 1015.4
20260504032102 8 50 0.0 8.0 0.00 0.00 0.00 74 1015.3
20260504031321 8 112 1.6 9.7 0.00 0.00 0.00 73 1015.2
20260504030850 8 21 6.4 8.0 0.00 0.00 0.00 72 1015.6
20260504030839 8 333 3.2 9.7 0.00 0.00 0.00 72 1015.6
20260504025824 8 160 3.2 4.8 0.00 0.00 0.00 73 1015.6
20260504025348 8 148 1.6 9.7 0.00 0.00 0.00 71 1015.4
20260504025336 8 146 1.6 6.4 0.00 0.00 0.00 73 1015.4
20260504024323 9 144 6.4 11.3 0.00 0.00 0.00 70 1015.3
20260504023823 9 173 4.8 11.3 0.00 0.00 0.00 69 1015.3
20260504023322 9 164 4.8 14.5 0.00 0.00 0.00 69 1015.2
20260504022823 9 184 4.8 16.1 0.00 0.00 0.00 69 1015.4
20260504022321 10 164 8.0 16.1 0.00 0.00 0.00 67 1015.5
20260504022105 9 119 12.9 14.5 0.00 0.00 0.00 69 1015.5
20260504021323 8 131 9.7 11.3 0.00 0.00 0.00 75 1015.7
20260504020823 7 119 3.2 8.0 0.00 0.00 0.00 79 1015.5
20260504020323 7 140 3.2 6.4 0.00 0.00 0.00 79 1015.6
20260504015823 7 136 6.4 8.0 0.00 0.00 0.00 80 1015.7
20260504015603 7 160 0.0 8.0 0.00 0.00 0.00 80 1015.6
20260504015103 7 139 4.8 4.8 0.00 0.00 0.00 82 1015.6
20260504014322 7 110 0.0 3.2 0.00 0.00 0.00 81 1015.7
20260504013824 6 111 3.2 3.2 0.00 0.00 0.00 82 1015.5
20260504013603 7 142 1.6 3.2 0.00 0.00 0.00 81 1015.3
20260504012822 7 129 0.0 3.2 0.00 0.00 0.00 81 1015.3
20260504012322 7 159 3.2 3.2 0.00 0.00 0.00 81 1015.5
20260504011823 7 113 0.0 3.2 0.00 0.00 0.00 80 1015.5
20260504011322 7 103 0.0 4.8 0.00 0.00 0.00 80 1015.5
20260504011104 7 89 0.0 4.8 0.00 0.00 0.00 79 1015.3
20260504010322 7 127 3.2 4.8 0.00 0.00 0.00 79 1015.5
20260504005824 7 132 3.2 4.8 0.00 0.00 0.00 78 1015.3
20260504005322 7 122 3.2 4.8 0.00 0.00 0.00 80 1015.8
20260504004823 7 129 3.2 4.8 0.00 0.00 0.00 80 1015.6
20260504004323 7 128 3.2 4.8 0.00 0.00 0.00 80 1015.6
20260504004104 7 129 1.6 3.2 0.00 0.00 0.00 79 1015.6
20260504003321 7 151 1.6 3.2 0.00 0.00 0.00 78 1015.8
20260504002823 8 159 0.0 3.2 0.00 0.00 0.00 78 1015.6
20260504002321 8 105 0.0 3.2 0.00 0.00 0.00 77 1015.6
20260504002106 8 130 0.0 3.2 0.00 0.00 0.00 77 1015.8
20260504001605 8 130 1.6 3.2 0.00 0.00 0.00 77 1015.6
20260504001126 8 162 1.6 4.8 0.00 0.00 0.00 75 1015.7
20260504000840 8 159 3.2 4.8 0.00 0.00 0.00 76 1015.6
20260503235823 8 141 4.8 4.8 0.00 0.00 0.00 75 1015.6
20260503235322 8 142 4.8 4.8 0.00 0.00 0.00 74 1016.0
20260503235103 9 135 3.2 3.2 0.00 0.00 0.00 72 1015.6
20260503234322 9 145 0.0 3.2 0.00 0.00 0.00 71 1015.6
20260503233825 9 154 0.0 3.2 0.00 0.00 0.00 71 1015.7
20260503233322 10 148 1.6 1.6 0.00 0.00 0.00 71 1015.7
20260503232823 10 84 1.6 6.4 0.00 0.00 0.00 70 1015.6
20260503232323 10 135 0.0 6.4 0.00 0.00 0.00 69 1015.8
20260503231823 10 180 0.0 4.8 0.00 0.00 0.00 68 1015.6
20260503231321 10 109 1.6 4.8 0.00 0.00 0.00 68 1015.8
20260503230823 11 110 3.2 4.8 0.00 0.00 0.00 65 1015.7
20260503230321 11 140 3.2 3.2 0.00 0.00 0.00 64 1015.9
20260503230104 11 117 0.0 3.2 0.00 0.00 0.00 62 1015.7
20260503225600 12 45 0.0 1.6 0.00 0.00 0.00 59 1015.9
20260503224823 12 129 0.0 4.8 0.00 0.00 0.00 60 1015.8
20260503224606 12 138 0.0 4.8 0.00 0.00 0.00 56 1015.8
20260503223822 13 305 0.0 6.4 0.00 0.00 0.00 53 1015.8
20260503223321 13 105 3.2 6.4 0.00 0.00 0.00 51 1015.6